STARLINK-31892 (59853 NORAD) Tracking and Keplerian Element Data

This shows tracking and keplerian element data for the satellite.

Feedback or suggestion? Click here.




ElementValue
Catalog59853
NameSTARLINK-31892
Epoch Orbit370
Epoch Day160.16667824
Epoch Year2024
RAAN318.6002
Inclination43.0008
Eccentricity0.0001887
Argument of Perigee283.5016
Mean Anonmoly93.5368
Mean Motion15.66644897
Decay Rate-0.01739339
L11 59853U 24097U 24160.16667824 -.01739339 00000+0 -18363-1 0 9993
L22 59853 43.0008 318.6002 0001887 283.5016 93.5368 15.66644897 3706



Live tracking and technical data element details for STARLINK-31892 (NORAD 59853). STARLINK-31892 can be tracked NOW for your location showing map with azimuth and elevation plus other details from your city location.







IsCatalogInMostPopularTable: catalog: 59853, numindb: 6
Update: records affected: 1



GetName: 59853 STARLINK-31892

Hit Count: updated at: Tue, 16 Jul 2024 03:30:07 GMT